Location: Tauranga
(37.6860°S, 176.1670°E)
Time: 00:48:24
(UTC+12:00)

Cosmos 1340 Rocket - Pass Details

Date: 24 January 2019
Orbit: 530 x 558 km, 81.2° (Epoch: 22 April)

Event Time Altitude Azimuth Distance (km) Brightness Sun altitude
Exits shadow 23:47:21 33° 179° (S) 930 4.4 -28.4°
Drops below altitude 10° 23:49:40 10° 174° (S) 1,826 6.2 -28.6°
Sets 23:51:51 0° 172° (S) 2,731 7.2 -28.8°
